Weather Roundup
Issued by NWS

Home | Current Version | Previous Version | Graphics & Text | Print | Product List | Glossary Off
Versions: 1 2 3 4 5 6 7 8 9 10 11 12 13 14 15 16 17 18 19 20 21 22 23 24 25 26 27 28 29 30 31 32 33 34 35 36 37 38 39 40 41 42 43 44 45 46 47 48 49 50

000
NZUS93 KARX 040159
HRRWXR

CURRENT HOURLY OBSERVATIONS ACROSS
MUCH OF THE UPPER MISSISSIPPI VALLEY
NATIONAL WEATHER SERVICE LA CROSSE WI
900 PM CDT THU SEP 03 2015


...SOUTHEAST MINNESOTA...


CITY           SKY/WX    TMP DP  RH WIND       PRES   REMARKS
ROCHESTER      CLEAR     77  74  90 E8        29.91R
ROCHESTER/MAYO FAIR      79  74  86 E8        29.91R
WINONA         CLEAR     77  70  78 CALM      29.90R
AUSTIN         PTCLDY    75  73  94 CALM      29.90R
ALBERT LEA     CLEAR     79  75  89 SE5       29.88R
DODGE CENTER   PTCLDY    75  73  94 E5        29.90R
PRESTON        CLEAR     78  73  82 SE3       29.92R
OWATONNA       CLEAR     81  73  78 SE6       29.88R
FARIBAULT      CLEAR     79  73  83 E6        29.88R
$$

...ELSEWHERE IN MINNESOTA...


CITY           SKY/WX    TMP DP  RH WIND       PRES   REMARKS
MINNEAPOLIS    PTCLDY    78  71  79 E10       29.88R
INTNL FALLS    CLEAR     66  62  87 SE8       29.90R
DULUTH         PTCLDY    61  50  67 E13       29.97R
RED WING       CLEAR     77  72  83 E7        29.88R
REDWOOD FALLS  CLEAR     81  76  84 SE6       29.83R
MANKATO        CLEAR     81  75  83 SE8       29.86R
WORTHINGTON    PTCLDY    75  72  88 SE6       29.86R
FAIRMONT       MOCLDY    79  68  69 SE8       29.85R
$$

...SOUTHWEST WISCONSIN...


CITY           SKY/WX    TMP DP  RH WIND       PRES   REMARKS
LA CROSSE      PTCLDY    80  71  74 E9        29.90R
PRAIRIE DU CHI CLEAR     79  73  81 E3        29.88R
BOSCOBEL       MOCLDY    81  75  82 NE5       29.91R
LONE ROCK      NOT AVBL
PLATTEVILLE    CLEAR     80  75  84 SE5       29.92R
FORT MC COY    MOCLDY    76  66  71 E8        29.93R
VIROQUA          N/A     75  75  98 E6        29.93R
WIS DELLS      CLEAR     72  65  79 E8        29.95R
$$

...ELSEWHERE IN WISCONSIN...


CITY           SKY/WX    TMP DP  RH WIND       PRES   REMARKS
MILWAUKEE      PTCLDY    65  63  93 N5        29.95R
MADISON        PTCLDY    72  66  81 NE7       29.94R
GREEN BAY      CLEAR     68  64  87 NE6       29.96R
EAU CLAIRE     NOT AVBL
BLACK RVR FLS  FAIR      73  67  82 E7        29.93R
MEDFORD        PTCLDY    67  66  96 E5        29.99R
WAUSAU         CLEAR     68  65  90 CALM      29.97R
WIS RAPIDS     CLEAR     68  64  87 E3        29.98R
MARSHFIELD     CLEAR     68  63  84 SE3       29.98R
RICE LAKE      CLEAR     71  66  84 E3        29.96R
$$

...NORTHEAST IOWA...


CITY           SKY/WX    TMP DP  RH WIND       PRES   REMARKS
DECORAH        CLEAR     79  75  89 SE5       29.90R
MASON CITY     MOCLDY    77  74  90 SE7       29.90R
CHARLES CITY   PTCLDY    79  77  94 SE7       29.90R
OELWEIN        CLEAR     77  75  94 SE6       29.91R
$$

...ELSEWHERE IN IOWA...


CITY           SKY/WX    TMP DP  RH WIND       PRES   REMARKS
DES MOINES     PTCLDY    83  71  67 SE8       29.87R
IOWA CITY      PTCLDY    80  73  79 CALM      29.91R
FORT DODGE     CLEAR     81  70  69 SE5       29.87R
$$

...NORTHERN ILLINOIS...


CITY           SKY/WX    TMP DP  RH WIND       PRES   REMARKS
CHICAGO-OHARE  PTCLDY    73  67  81 NE8       29.93S
CHICAGO-MIDWAY PTCLDY    76  67  73 NE10      29.93R
MOLINE         CLEAR     78  72  81 CALM      29.91R
ROCKFORD       MOCLDY    80  73  79 CALM      29.92R
PEORIA         CLEAR     81  70  69 CALM      29.93R
$$

NOTE: "FAIR" INDICATES FEW OR NO CLOUDS BELOW 12,000 FEET WITH NO
SIGNIFICANT WEATHER AND/OR OBSTRUCTIONS TO VISIBILITY. WIND
SPEEDS ARE IN MILES-PER-HOUR.



USA.gov is the U.S. government's official web portal to all federal, state and local government web resources and services.